QPF
0.00 0.00 0.00 0.01 0.04 0.02 0.00 0.00 0.00 0.00 0.00 0.01 0.01 0.00 0.00 0.01 0.03 0.05 0.07 0.03 0.02 0.03 0.05 0.06 0.08 0.11 0.12 0.12 0.11 0.12 0.11 0.11 0.14 0.18 0.20 0.24 0.19 0.16 0.15 0.14 0.12 0.13 0.14 0.14 0.17 0.17 0.16 0.13 0.12
0.00 0.00 0.00 0.01 0.02 0.01 0.01 0.00 0.00 0.00 0.00 0.01 0.01 0.00 0.00 0.00 0.00 0.03 0.05 0.03 0.01 0.01 0.03 0.02 0.04 0.09 0.12 0.11 0.12 0.11 0.09 0.08 0.09 0.17 0.21 0.22 0.21 0.19 0.16 0.13 0.14 0.15 0.15 0.17 0.23 0.23 0.17 0.14 0.12
0.00 0.00 0.00 0.01 0.01 0.00 0.00 0.00 0.00 0.00 0.00 0.00 0.01 0.00 0.00 0.01 0.01 0.03 0.03 0.02 0.00 0.01 0.02 0.02 0.04 0.09 0.12 0.11 0.11 0.10 0.09 0.08 0.08 0.14 0.23 0.26 0.24 0.21 0.15 0.14 0.17 0.18 0.17 0.22 0.27 0.19 0.14 0.12 0.07
0.00 0.00 0.01 0.01 0.00 0.00 0.00 0.00 0.00 0.00 0.00 0.00 0.00 0.00 0.01 0.01 0.01 0.01 0.01 0.01 0.00 0.01 0.03 0.05 0.07 0.08 0.10 0.10 0.10 0.09 0.08 0.08 0.08 0.10 0.16 0.21 0.21 0.19 0.17 0.16 0.18 0.16 0.16 0.20 0.17 0.12 0.08 0.05 0.03
0.00 0.01 0.03 0.01 0.00 0.00 0.00 0.00 0.00 0.00 0.00 0.00 0.00 0.00 0.01 0.01 0.00 0.00 0.00 0.00 0.00 0.00 0.02 0.04 0.05 0.05 0.06 0.09 0.10 0.10 0.09 0.08 0.08 0.08 0.11 0.14 0.14 0.14 0.15 0.14 0.14 0.13 0.12 0.10 0.08 0.06 0.04 0.02 0.02
0.00 0.01 0.02 0.00 0.00 0.00 0.00 0.00 0.00 0.00 0.00 0.00 0.00 0.00 0.01 0.00 0.00 0.00 0.00 0.01 0.01 0.01 0.02 0.03 0.03 0.03 0.05 0.07 0.08 0.08 0.09 0.10 0.10 0.11 0.12 0.11 0.10 0.11 0.11 0.11 0.09 0.08 0.07 0.06 0.05 0.03 0.03 0.02 0.02
0.00 0.00 0.00 0.00 0.00 0.00 0.00 0.00 0.00 0.00 0.00 0.00 0.00 0.00 0.01 0.00 0.00 0.00 0.00 0.00 0.01 0.02 0.03 0.06 0.02 0.02 0.05 0.11 0.13 0.14 0.15 0.15 0.15 0.16 0.12 0.09 0.08 0.08 0.09 0.08 0.07 0.06 0.05 0.05 0.04 0.03 0.02 0.01 0.01
0.00 0.00 0.00 0.00 0.00 0.00 0.00 0.00 0.00 0.00 0.00 0.00 0.00 0.00 0.00 0.01 0.00 0.00 0.00 0.00 0.01 0.02 0.02 0.05 0.04 0.03 0.04 0.09 0.15 0.17 0.16 0.16 0.14 0.12 0.10 0.08 0.07 0.07 0.07 0.05 0.05 0.04 0.04 0.05 0.06 0.04 0.01 0.00 0.01
0.00 0.00 0.00 0.00 0.00 0.00 0.00 0.00 0.00 0.00 0.00 0.00 0.00 0.00 0.00 0.00 0.00 0.00 0.00 0.00 0.01 0.02 0.01 0.01 0.03 0.04 0.03 0.03 0.05 0.08 0.09 0.10 0.11 0.11 0.10 0.11 0.11 0.09 0.08 0.06 0.10 0.06 0.04 0.04 0.03 0.01 0.00 0.01 0.01
0.00 0.01 0.01 0.01 0.00 0.00 0.00 0.00 0.00 0.00 0.00 0.00 0.00 0.00 0.00 0.00 0.00 0.00 0.00 0.00 0.01 0.02 0.01 0.01 0.02 0.01 0.01 0.02 0.03 0.06 0.07 0.07 0.09 0.09 0.06 0.09 0.12 0.10 0.07 0.09 0.08 0.05 0.03 0.02 0.03 0.03 0.02 0.01 0.02
0.00 0.00 0.00 0.00 0.00 0.00 0.00 0.00 0.00 0.00 0.00 0.00 0.00 0.00 0.00 0.00 0.00 0.00 0.00 0.00 0.01 0.02 0.03 0.02 0.01 0.01 0.02 0.03 0.03 0.05 0.05 0.06 0.06 0.06 0.06 0.08 0.08 0.08 0.05 0.08 0.08 0.05 0.04 0.05 0.05 0.05 0.04 0.03 0.04
0.00 0.00 0.00 0.00 0.00 0.00 0.00 0.00 0.00 0.00 0.00 0.00 0.00 0.00 0.00 0.00 0.00 0.00 0.00 0.00 0.00 0.00 0.01 0.01 0.00 0.01 0.02 0.02 0.02 0.04 0.03 0.04 0.05 0.05 0.05 0.07 0.08 0.08 0.09 0.10 0.08 0.08 0.08 0.10 0.08 0.06 0.05 0.05 0.06
0.00 0.00 0.00 0.00 0.00 0.00 0.00 0.00 0.00 0.00 0.00 0.00 0.00 0.00 0.00 0.00 0.00 0.00 0.00 0.00 0.00 0.01 0.01 0.01 0.01 0.01 0.01 0.02 0.03 0.02 0.02 0.03 0.04 0.05 0.07 0.08 0.10 0.10 0.10 0.10 0.09 0.06 0.07 0.08 0.07 0.07 0.06 0.06 0.06
0.00 0.00 0.00 0.00 0.00 0.00 0.00 0.00 0.00 0.00 0.00 0.00 0.00 0.00 0.00 0.00 0.00 0.00 0.00 0.00 0.00 0.00 0.01 0.02 0.01 0.01 0.01 0.02 0.04 0.04 0.02 0.03 0.05 0.07 0.09 0.09 0.11 0.11 0.11 0.11 0.11 0.06 0.05 0.05 0.06 0.07 0.11 0.09 0.08
0.00 0.00 0.00 0.00 0.00 0.00 0.00 0.00 0.00 0.00 0.00 0.00 0.00 0.00 0.00 0.00 0.00 0.00 0.00 0.00 0.00 0.00 0.01 0.02 0.02 0.01 0.01 0.02 0.02 0.03 0.02 0.02 0.04 0.07 0.06 0.08 0.10 0.11 0.11 0.11 0.09 0.07 0.06 0.04 0.03 0.05 0.07 0.09 0.09
0.00 0.00 0.00 0.00 0.00 0.00 0.01 0.01 0.00 0.00 0.00 0.00 0.00 0.00 0.00 0.00 0.00 0.00 0.00 0.00 0.00 0.01 0.01 0.02 0.01 0.01 0.01 0.03 0.03 0.02 0.02 0.03 0.04 0.05 0.06 0.05 0.05 0.06 0.09 0.09 0.08 0.08 0.06 0.05 0.06 0.06 0.08 0.09 0.09
0.01 0.01 0.00 0.00 0.00 0.00 0.00 0.01 0.00 0.00 0.00 0.00 0.00 0.00 0.00 0.00 0.00 0.00 0.00 0.00 0.00 0.00 0.01 0.01 0.01 0.02 0.02 0.01 0.03 0.04 0.05 0.05 0.06 0.05 0.07 0.06 0.04 0.05 0.07 0.07 0.07 0.08 0.08 0.07 0.05 0.08 0.11 0.12 0.10
0.02 0.01 0.00 0.00 0.00 0.00 0.00 0.01 0.01 0.00 0.00 0.00 0.00 0.00 0.00 0.00 0.00 0.00 0.00 0.00 0.00 0.01 0.00 0.01 0.01 0.01 0.02 0.03 0.05 0.06 0.05 0.04 0.04 0.05 0.06 0.06 0.07 0.08 0.10 0.08 0.06 0.06 0.09 0.10 0.08 0.10 0.15 0.15 0.12
0.01 0.01 0.00 0.00 0.00 0.00 0.01 0.02 0.01 0.00 0.00 0.00 0.00 0.00 0.00 0.00 0.00 0.00 0.00 0.02 0.01 0.01 0.01 0.01 0.01 0.02 0.04 0.06 0.08 0.09 0.06 0.04 0.03 0.04 0.03 0.03 0.05 0.06 0.09 0.09 0.09 0.08 0.10 0.10 0.08 0.10 0.13 0.12 0.10
0.00 0.01 0.01 0.00 0.01 0.00 0.01 0.03 0.01 0.00 0.00 0.00 0.00 0.00 0.00 0.00 0.00 0.00 0.00 0.02 0.02 0.01 0.01 0.01 0.01 0.02 0.03 0.07 0.08 0.09 0.06 0.04 0.03 0.02 0.02 0.02 0.03 0.04 0.07 0.07 0.07 0.09 0.11 0.10 0.10 0.10 0.11 0.11 0.11
0.00 0.01 0.01 0.01 0.00 0.00 0.01 0.03 0.02 0.00 0.00 0.00 0.00 0.00 0.00 0.00 0.00 0.00 0.00 0.01 0.02 0.02 0.01 0.01 0.03 0.03 0.04 0.05 0.07 0.09 0.07 0.06 0.04 0.03 0.03 0.03 0.03 0.03 0.05 0.05 0.05 0.07 0.07 0.10 0.11 0.09 0.09 0.10 0.10
0.00 0.00 0.01 0.01 0.01 0.01 0.00 0.02 0.03 0.01 0.00 0.00 0.00 0.00 0.00 0.00 0.00 0.00 0.00 0.00 0.01 0.01 0.01 0.01 0.02 0.03 0.03 0.05 0.08 0.08 0.08 0.07 0.05 0.04 0.04 0.03 0.02 0.01 0.02 0.02 0.03 0.05 0.05 0.07 0.08 0.08 0.09 0.11 0.09
0.00 0.00 0.01 0.01 0.02 0.01 0.01 0.00 0.02 0.03 0.02 0.01 0.00 0.00 0.00 0.00 0.00 0.00 0.00 0.00 0.00 0.00 0.00 0.01 0.01 0.03 0.03 0.04 0.06 0.07 0.07 0.06 0.04 0.03 0.03 0.04 0.03 0.01 0.01 0.01 0.02 0.04 0.05 0.05 0.05 0.07 0.08 0.09 0.09
0.00 0.00 0.01 0.01 0.02 0.02 0.01 0.01 0.02 0.03 0.04 0.02 0.00 0.00 0.00 0.00 0.00 0.00 0.00 0.00 0.00 0.00 0.01 0.01 0.01 0.02 0.03 0.05 0.05 0.04 0.03 0.03 0.03 0.03 0.04 0.03 0.03 0.02 0.01 0.02 0.03 0.03 0.03 0.03 0.04 0.05 0.05 0.07 0.08
0.00 0.00 0.02 0.04 0.04 0.02 0.01 0.00 0.00 0.00 0.01 0.01 0.00 0.00 0.00 0.00 0.00 0.00 0.00 0.00 0.01 0.01 0.02 0.03 0.02 0.03 0.03 0.03 0.04 0.03 0.02 0.03 0.03 0.04 0.04 0.04 0.04 0.04 0.02 0.03 0.03 0.03 0.03 0.02 0.04 0.05 0.05 0.06 0.06
0.00 0.00 0.02 0.03 0.03 0.03 0.01 0.00 0.01 0.00 0.00 0.00 0.01 0.00 0.00 0.00 0.00 0.00 0.00 0.00 0.01 0.01 0.02 0.02 0.02 0.03 0.03 0.02 0.03 0.04 0.03 0.03 0.03 0.03 0.02 0.02 0.02 0.01 0.01 0.02 0.02 0.02 0.02 0.03 0.05 0.04 0.05 0.07 0.07
0.00 0.00 0.01 0.02 0.02 0.02 0.02 0.02 0.01 0.00 0.00 0.00 0.00 0.00 0.00 0.00 0.00 0.00 0.00 0.00 0.01 0.02 0.01 0.01 0.02 0.03 0.03 0.02 0.02 0.03 0.02 0.02 0.02 0.02 0.02 0.01 0.02 0.01 0.01 0.01 0.03 0.04 0.04 0.04 0.05 0.06 0.06 0.07 0.06
0.00 0.00 0.00 0.02 0.03 0.03 0.02 0.02 0.02 0.01 0.00 0.00 0.00 0.00 0.00 0.00 0.00 0.00 0.00 0.00 0.01 0.01 0.01 0.01 0.01 0.02 0.03 0.03 0.02 0.02 0.01 0.01 0.01 0.02 0.02 0.02 0.02 0.02 0.01 0.02 0.03 0.03 0.03 0.04 0.06 0.07 0.07 0.07 0.07
0.00 0.00 0.00 0.01 0.02 0.03 0.02 0.02 0.02 0.01 0.00 0.00 0.00 0.00 0.00 0.00 0.00 0.00 0.00 0.00 0.01 0.01 0.01 0.01 0.01 0.02 0.03 0.02 0.01 0.01 0.01 0.00 0.00 0.01 0.01 0.01 0.02 0.02 0.01 0.01 0.02 0.02 0.03 0.04 0.05 0.05 0.05 0.05 0.06
0.00 0.00 0.00 0.01 0.01 0.02 0.02 0.01 0.01 0.01 0.00 0.00 0.00 0.00 0.00 0.00 0.00 0.00 0.00 0.01 0.01 0.01 0.01 0.01 0.01 0.01 0.02 0.01 0.01 0.01 0.01 0.01 0.01 0.01 0.01 0.01 0.02 0.01 0.01 0.01 0.01 0.01 0.02 0.02 0.03 0.03 0.02 0.02 0.04
MSLP
1003.61 1004.57 1005.87 1007.37 1008.88 1010.24 1011.33 1012.09 1012.51 1012.66 1012.65 1012.58 1012.52 1012.52 1012.58 1012.67 1012.75 1012.78 1012.73 1012.63 1012.51 1012.40 1012.35 1012.37 1012.45 1012.55 1012.62 1012.63 1012.55 1012.37 1012.14 1011.88 1011.66 1011.51 1011.45 1011.46 1011.51 1011.58 1011.61 1011.58 1011.50 1011.39 1011.28 1011.19 1011.16 1011.18 1011.25 1011.33 1011.43
1003.92 1005.10 1006.56 1008.12 1009.60 1010.85 1011.76 1012.30 1012.52 1012.50 1012.37 1012.22 1012.14 1012.15 1012.25 1012.38 1012.50 1012.56 1012.57 1012.53 1012.48 1012.45 1012.48 1012.57 1012.70 1012.83 1012.92 1012.93 1012.84 1012.66 1012.44 1012.22 1012.06 1011.96 1011.96 1012.01 1012.10 1012.16 1012.18 1012.14 1012.04 1011.92 1011.81 1011.74 1011.73 1011.77 1011.85 1011.93 1012.01
1004.35 1005.72 1007.29 1008.86 1010.25 1011.34 1012.05 1012.38 1012.40 1012.23 1012.00 1011.81 1011.73 1011.77 1011.90 1012.08 1012.23 1012.34 1012.38 1012.38 1012.38 1012.41 1012.51 1012.67 1012.86 1013.05 1013.17 1013.21 1013.15 1013.00 1012.82 1012.64 1012.52 1012.48 1012.52 1012.60 1012.69 1012.74 1012.74 1012.67 1012.56 1012.44 1012.34 1012.30 1012.31 1012.37 1012.46 1012.55 1012.62
1004.85 1006.35 1007.96 1009.49 1010.78 1011.70 1012.21 1012.36 1012.23 1011.95 1011.67 1011.48 1011.43 1011.51 1011.69 1011.89 1012.06 1012.17 1012.21 1012.22 1012.24 1012.31 1012.46 1012.68 1012.94 1013.19 1013.38 1013.46 1013.45 1013.35 1013.22 1013.09 1013.02 1013.01 1013.07 1013.17 1013.25 1013.29 1013.27 1013.19 1013.07 1012.96 1012.89 1012.87 1012.92 1013.00 1013.10 1013.18 1013.22
1005.33 1006.89 1008.50 1009.96 1011.12 1011.90 1012.26 1012.28 1012.07 1011.76 1011.48 1011.33 1011.34 1011.47 1011.68 1011.90 1012.06 1012.13 1012.14 1012.12 1012.13 1012.21 1012.38 1012.65 1012.96 1013.27 1013.51 1013.66 1013.70 1013.66 1013.57 1013.49 1013.46 1013.48 1013.56 1013.65 1013.73 1013.77 1013.74 1013.66 1013.56 1013.47 1013.43 1013.45 1013.52 1013.62 1013.71 1013.77 1013.78
1005.71 1007.27 1008.83 1010.20 1011.25 1011.91 1012.19 1012.16 1011.94 1011.67 1011.47 1011.41 1011.50 1011.69 1011.93 1012.13 1012.25 1012.27 1012.21 1012.12 1012.09 1012.14 1012.31 1012.60 1012.94 1013.29 1013.59 1013.78 1013.87 1013.87 1013.83 1013.78 1013.78 1013.82 1013.91 1014.01 1014.09 1014.13 1014.12 1014.05 1013.98 1013.93 1013.92 1013.97 1014.05 1014.15 1014.23 1014.25 1014.21
1005.97 1007.47 1008.94 1010.20 1011.15 1011.74 1011.99 1011.98 1011.84 1011.69 1011.62 1011.69 1011.88 1012.14 1012.39 1012.57 1012.63 1012.56 1012.42 1012.25 1012.15 1012.15 1012.30 1012.57 1012.93 1013.29 1013.60 1013.82 1013.94 1013.96 1013.94 1013.92 1013.94 1014.00 1014.10 1014.21 1014.31 1014.36 1014.37 1014.34 1014.31 1014.29 1014.31 1014.38 1014.47 1014.55 1014.59 1014.56 1014.46
1006.10 1007.50 1008.84 1009.99 1010.85 1011.40 1011.67 1011.75 1011.74 1011.74 1011.85 1012.06 1012.37 1012.69 1012.97 1013.12 1013.11 1012.97 1012.74 1012.49 1012.31 1012.27 1012.37 1012.61 1012.94 1013.28 1013.58 1013.79 1013.91 1013.94 1013.93 1013.92 1013.94 1014.02 1014.14 1014.27 1014.39 1014.47 1014.52 1014.52 1014.52 1014.53 1014.57 1014.64 1014.71 1014.76 1014.76 1014.68 1014.54
1006.16 1007.42 1008.62 1009.64 1010.42 1010.95 1011.27 1011.45 1011.60 1011.78 1012.06 1012.43 1012.84 1013.23 1013.52 1013.65 1013.60 1013.40 1013.10 1012.80 1012.57 1012.47 1012.52 1012.72 1013.00 1013.30 1013.56 1013.74 1013.82 1013.84 1013.82 1013.82 1013.85 1013.94 1014.07 1014.23 1014.38 1014.50 1014.57 1014.60 1014.62 1014.65 1014.69 1014.74 1014.79 1014.81 1014.77 1014.65 1014.46
1006.21 1007.32 1008.35 1009.24 1009.94 1010.45 1010.82 1011.11 1011.41 1011.76 1012.19 1012.68 1013.18 1013.63 1013.93 1014.06 1013.99 1013.76 1013.44 1013.12 1012.86 1012.74 1012.75 1012.90 1013.13 1013.37 1013.57 1013.69 1013.74 1013.73 1013.69 1013.68 1013.72 1013.83 1013.98 1014.16 1014.34 1014.48 1014.57 1014.62 1014.65 1014.67 1014.70 1014.73 1014.74 1014.73 1014.65 1014.51 1014.32
1006.35 1007.29 1008.16 1008.91 1009.52 1010.00 1010.40 1010.77 1011.18 1011.65 1012.19 1012.77 1013.33 1013.80 1014.12 1014.26 1014.20 1013.99 1013.69 1013.39 1013.16 1013.03 1013.03 1013.14 1013.32 1013.49 1013.63 1013.70 1013.70 1013.65 1013.60 1013.59 1013.64 1013.75 1013.93 1014.12 1014.31 1014.46 1014.56 1014.62 1014.63 1014.64 1014.64 1014.64 1014.62 1014.58 1014.50 1014.35 1014.17
1006.63 1007.41 1008.12 1008.72 1009.23 1009.67 1010.07 1010.48 1010.94 1011.48 1012.06 1012.68 1013.25 1013.73 1014.07 1014.23 1014.21 1014.06 1013.83 1013.59 1013.41 1013.32 1013.34 1013.43 1013.56 1013.68 1013.76 1013.78 1013.74 1013.66 1013.60 1013.59 1013.64 1013.76 1013.94 1014.14 1014.33 1014.48 1014.57 1014.61 1014.61 1014.58 1014.55 1014.52 1014.49 1014.44 1014.35 1014.22 1014.07
1007.07 1007.70 1008.26 1008.73 1009.14 1009.52 1009.90 1010.31 1010.77 1011.30 1011.88 1012.47 1013.02 1013.48 1013.81 1014.00 1014.04 1013.97 1013.85 1013.71 1013.62 1013.59 1013.63 1013.73 1013.83 1013.92 1013.95 1013.93 1013.86 1013.78 1013.71 1013.69 1013.74 1013.86 1014.03 1014.22 1014.40 1014.53 1014.60 1014.61 1014.58 1014.53 1014.47 1014.43 1014.38 1014.33 1014.26 1014.16 1014.04
1007.64 1008.14 1008.57 1008.93 1009.26 1009.58 1009.92 1010.30 1010.73 1011.21 1011.72 1012.23 1012.71 1013.12 1013.44 1013.65 1013.76 1013.79 1013.78 1013.77 1013.78 1013.83 1013.91 1014.02 1014.11 1014.18 1014.19 1014.14 1014.06 1013.97 1013.90 1013.88 1013.92 1014.03 1014.17 1014.33 1014.48 1014.57 1014.62 1014.60 1014.55 1014.48 1014.41 1014.36 1014.32 1014.28 1014.23 1014.16 1014.06
1008.26 1008.65 1008.97 1009.26 1009.54 1009.82 1010.13 1010.47 1010.84 1011.24 1011.64 1012.05 1012.43 1012.77 1013.06 1013.29 1013.46 1013.58 1013.69 1013.79 1013.90 1014.02 1014.16 1014.28 1014.38 1014.43 1014.43 1014.38 1014.30 1014.22 1014.15 1014.12 1014.14 1014.21 1014.31 1014.43 1014.52 1014.58 1014.59 1014.56 1014.50 1014.43 1014.36 1014.32 1014.29 1014.27 1014.24 1014.19 1014.11
1008.82 1009.12 1009.38 1009.64 1009.91 1010.20 1010.51 1010.82 1011.13 1011.42 1011.71 1011.98 1012.24 1012.49 1012.73 1012.96 1013.18 1013.40 1013.60 1013.81 1014.00 1014.19 1014.36 1014.50 1014.60 1014.66 1014.66 1014.62 1014.55 1014.47 1014.40 1014.36 1014.35 1014.37 1014.41 1014.46 1014.50 1014.52 1014.50 1014.46 1014.41 1014.35 1014.31 1014.28 1014.28 1014.28 1014.26 1014.22 1014.13
1009.22 1009.46 1009.71 1010.00 1010.32 1010.66 1010.99 1011.29 1011.55 1011.74 1011.90 1012.02 1012.15 1012.30 1012.48 1012.70 1012.96 1013.24 1013.53 1013.82 1014.09 1014.32 1014.52 1014.67 1014.78 1014.84 1014.86 1014.84 1014.79 1014.72 1014.65 1014.58 1014.52 1014.48 1014.45 1014.43 1014.41 1014.38 1014.35 1014.31 1014.28 1014.26 1014.25 1014.26 1014.27 1014.29 1014.28 1014.23 1014.12
1009.40 1009.62 1009.91 1010.28 1010.70 1011.13 1011.53 1011.84 1012.04 1012.14 1012.16 1012.14 1012.12 1012.16 1012.28 1012.48 1012.76 1013.10 1013.46 1013.81 1014.14 1014.41 1014.62 1014.79 1014.90 1014.97 1015.01 1015.02 1014.99 1014.94 1014.86 1014.77 1014.66 1014.55 1014.44 1014.34 1014.26 1014.20 1014.16 1014.14 1014.14 1014.16 1014.20 1014.24 1014.28 1014.31 1014.30 1014.23 1014.10
1009.36 1009.60 1009.98 1010.47 1011.03 1011.59 1012.06 1012.39 1012.55 1012.54 1012.42 1012.24 1012.08 1012.00 1012.05 1012.23 1012.54 1012.93 1013.35 1013.76 1014.13 1014.43 1014.67 1014.84 1014.96 1015.05 1015.11 1015.15 1015.16 1015.13 1015.06 1014.94 1014.79 1014.61 1014.42 1014.25 1014.11 1014.01 1013.97 1013.97 1014.02 1014.09 1014.18 1014.26 1014.33 1014.35 1014.33 1014.25 1014.10
1009.16 1009.46 1009.96 1010.61 1011.33 1012.02 1012.57 1012.90 1013.00 1012.87 1012.59 1012.25 1011.94 1011.75 1011.73 1011.90 1012.23 1012.67 1013.16 1013.63 1014.05 1014.38 1014.63 1014.82 1014.96 1015.07 1015.17 1015.25 1015.30 1015.30 1015.24 1015.11 1014.92 1014.69 1014.43 1014.19 1014.00 1013.88 1013.83 1013.87 1013.96 1014.09 1014.22 1014.34 1014.42 1014.45 1014.42 1014.32 1014.14
1008.90 1009.30 1009.94 1010.77 1011.65 1012.45 1013.05 1013.36 1013.37 1013.09 1012.63 1012.11 1011.65 1011.35 1011.27 1011.43 1011.80 1012.30 1012.87 1013.41 1013.88 1014.26 1014.53 1014.74 1014.89 1015.03 1015.17 1015.30 1015.40 1015.44 1015.42 1015.29 1015.08 1014.81 1014.50 1014.22 1013.98 1013.84 1013.80 1013.85 1013.98 1014.16 1014.33 1014.48 1014.58 1014.60 1014.56 1014.44 1014.27
1008.69 1009.21 1010.02 1011.01 1012.02 1012.90 1013.51 1013.76 1013.63 1013.18 1012.52 1011.82 1011.21 1010.80 1010.68 1010.85 1011.27 1011.85 1012.50 1013.12 1013.65 1014.07 1014.38 1014.60 1014.78 1014.94 1015.12 1015.29 1015.45 1015.55 1015.56 1015.47 1015.26 1014.97 1014.64 1014.32 1014.06 1013.90 1013.86 1013.94 1014.10 1014.30 1014.50 1014.67 1014.78 1014.80 1014.75 1014.62 1014.45
1008.62 1009.29 1010.25 1011.38 1012.48 1013.39 1013.96 1014.10 1013.81 1013.16 1012.31 1011.42 1010.67 1010.18 1010.03 1010.22 1010.70 1011.37 1012.11 1012.81 1013.41 1013.87 1014.20 1014.43 1014.62 1014.80 1015.01 1015.23 1015.44 1015.60 1015.67 1015.61 1015.43 1015.15 1014.82 1014.49 1014.22 1014.05 1014.00 1014.08 1014.26 1014.48 1014.70 1014.88 1014.99 1015.01 1014.94 1014.82 1014.66
1008.72 1009.54 1010.64 1011.86 1013.01 1013.90 1014.38 1014.38 1013.91 1013.07 1012.04 1010.99 1010.13 1009.58 1009.42 1009.65 1010.20 1010.95 1011.77 1012.54 1013.19 1013.68 1014.02 1014.25 1014.44 1014.62 1014.84 1015.10 1015.35 1015.56 1015.69 1015.69 1015.56 1015.32 1015.00 1014.67 1014.40 1014.22 1014.17 1014.25 1014.42 1014.65 1014.88 1015.06 1015.16 1015.18 1015.11 1014.98 1014.82
1008.97 1009.92 1011.12 1012.39 1013.54 1014.36 1014.73 1014.58 1013.95 1012.94 1011.76 1010.60 1009.67 1009.09 1008.95 1009.22 1009.83 1010.65 1011.54 1012.36 1013.04 1013.54 1013.87 1014.08 1014.24 1014.41 1014.62 1014.89 1015.18 1015.44 1015.62 1015.69 1015.61 1015.42 1015.14 1014.83 1014.56 1014.39 1014.33 1014.40 1014.56 1014.78 1014.99 1015.17 1015.26 1015.27 1015.20 1015.07 1014.91
1009.31 1010.35 1011.60 1012.87 1013.96 1014.69 1014.93 1014.65 1013.88 1012.76 1011.49 1010.28 1009.33 1008.77 1008.66 1008.98 1009.65 1010.52 1011.45 1012.29 1012.97 1013.45 1013.74 1013.91 1014.03 1014.17 1014.36 1014.62 1014.92 1015.22 1015.46 1015.59 1015.58 1015.44 1015.21 1014.94 1014.68 1014.51 1014.44 1014.49 1014.64 1014.83 1015.04 1015.20 1015.28 1015.28 1015.20 1015.07 1014.91
1009.64 1010.73 1011.96 1013.17 1014.16 1014.78 1014.90 1014.51 1013.66 1012.49 1011.21 1010.02 1009.11 1008.60 1008.55 1008.92 1009.63 1010.53 1011.45 1012.29 1012.94 1013.37 1013.62 1013.74 1013.81 1013.90 1014.06 1014.31 1014.62 1014.94 1015.22 1015.41 1015.46 1015.38 1015.21 1014.98 1014.75 1014.58 1014.51 1014.54 1014.66 1014.84 1015.02 1015.16 1015.24 1015.23 1015.15 1015.01 1014.84
1009.91 1010.96 1012.11 1013.20 1014.06 1014.54 1014.56 1014.10 1013.23 1012.09 1010.87 1009.77 1008.95 1008.54 1008.55 1008.97 1009.70 1010.58 1011.48 1012.27 1012.87 1013.26 1013.46 1013.53 1013.55 1013.61 1013.75 1013.98 1014.30 1014.64 1014.96 1015.19 1015.30 1015.29 1015.17 1014.98 1014.79 1014.63 1014.56 1014.58 1014.67 1014.82 1014.98 1015.11 1015.18 1015.17 1015.08 1014.93 1014.76
1010.07 1011.01 1012.01 1012.92 1013.60 1013.94 1013.87 1013.38 1012.55 1011.50 1010.41 1009.45 1008.77 1008.47 1008.56 1009.01 1009.73 1010.58 1011.43 1012.15 1012.70 1013.04 1013.20 1013.24 1013.25 1013.30 1013.44 1013.68 1014.00 1014.36 1014.70 1014.98 1015.14 1015.18 1015.11 1014.98 1014.82 1014.69 1014.62 1014.63 1014.71 1014.84 1014.98 1015.09 1015.15 1015.13 1015.04 1014.89 1014.71
1010.13 1010.89 1011.67 1012.35 1012.83 1013.01 1012.85 1012.36 1011.61 1010.69 1009.78 1009.00 1008.49 1008.30 1008.46 1008.93 1009.62 1010.42 1011.19 1011.86 1012.35 1012.66 1012.82 1012.88 1012.92 1012.99 1013.16 1013.42 1013.76 1014.14 1014.51 1014.82 1015.02 1015.10 1015.09 1015.00 1014.88 1014.78 1014.72 1014.74 1014.81 1014.92 1015.05 1015.14 1015.19 1015.17 1015.08 1014.93 1014.74
Thickness
5863 5862 5857 5847 5826 5812 5799 5804 5809 5805 5804 5812 5813 5805 5790 5782 5771 5755 5779 5787 5784 5779 5773 5770 5769 5769 5769 5769 5769 5768 5768 5768 5769 5769 5768 5768 5768 5769 5769 5769 5769 5768 5767 5767 5766 5766 5765 5764 5764
5872 5869 5856 5843 5819 5796 5793 5806 5804 5806 5812 5817 5813 5804 5791 5783 5787 5781 5784 5787 5785 5780 5774 5770 5768 5768 5768 5767 5767 5767 5766 5766 5767 5766 5766 5766 5766 5767 5767 5767 5766 5766 5766 5765 5764 5764 5763 5762 5762
5873 5873 5852 5839 5819 5801 5796 5809 5811 5817 5822 5816 5805 5801 5791 5782 5787 5785 5788 5790 5786 5779 5774 5769 5768 5767 5767 5766 5765 5765 5764 5764 5764 5764 5764 5764 5764 5764 5765 5765 5764 5764 5764 5763 5763 5762 5761 5761 5761
5872 5868 5857 5835 5814 5818 5818 5819 5822 5818 5819 5820 5809 5792 5790 5796 5793 5792 5794 5792 5786 5780 5774 5769 5767 5766 5766 5765 5764 5763 5763 5762 5762 5762 5762 5762 5762 5762 5763 5763 5763 5763 5763 5762 5761 5761 5760 5760 5760
5876 5860 5838 5822 5819 5827 5832 5833 5830 5817 5813 5812 5803 5785 5781 5796 5801 5799 5796 5793 5787 5782 5776 5770 5767 5766 5765 5764 5763 5762 5762 5761 5761 5761 5761 5760 5760 5761 5761 5761 5761 5761 5761 5761 5760 5759 5759 5759 5760
5869 5862 5830 5815 5820 5830 5836 5839 5831 5819 5814 5812 5801 5786 5782 5798 5798 5798 5798 5794 5790 5784 5776 5770 5767 5766 5765 5765 5763 5762 5761 5761 5760 5760 5760 5760 5759 5759 5759 5759 5760 5760 5760 5760 5759 5759 5759 5759 5760
5866 5861 5840 5832 5824 5825 5835 5843 5831 5821 5815 5815 5811 5790 5787 5795 5800 5801 5799 5795 5792 5787 5779 5773 5769 5766 5765 5764 5763 5762 5761 5761 5760 5760 5759 5759 5759 5759 5758 5758 5758 5758 5758 5758 5759 5759 5759 5760 5760
5893 5870 5848 5841 5828 5825 5841 5843 5838 5827 5819 5829 5823 5795 5785 5795 5804 5802 5799 5795 5791 5787 5782 5777 5774 5771 5769 5766 5764 5763 5762 5761 5760 5760 5759 5759 5759 5759 5758 5758 5757 5758 5758 5758 5759 5759 5760 5760 5760
5902 5863 5841 5841 5834 5834 5845 5837 5836 5840 5828 5825 5824 5813 5805 5807 5806 5799 5793 5789 5787 5785 5784 5781 5778 5775 5774 5771 5766 5764 5763 5762 5761 5761 5760 5760 5761 5760 5759 5759 5758 5758 5758 5759 5759 5760 5760 5760 5761
5886 5852 5849 5859 5856 5848 5847 5840 5837 5831 5819 5812 5811 5811 5812 5808 5802 5794 5789 5784 5782 5781 5784 5784 5781 5779 5778 5775 5770 5768 5766 5764 5763 5763 5762 5761 5762 5763 5762 5761 5760 5760 5760 5760 5760 5761 5761 5761 5763
5880 5860 5865 5867 5868 5862 5852 5847 5848 5831 5813 5812 5806 5806 5808 5805 5801 5796 5791 5788 5784 5785 5785 5785 5783 5780 5778 5776 5774 5772 5770 5767 5766 5765 5765 5764 5764 5764 5764 5763 5761 5761 5761 5762 5762 5762 5763 5765 5766
5877 5875 5876 5872 5874 5866 5857 5852 5845 5836 5826 5828 5822 5817 5810 5804 5801 5798 5794 5791 5789 5788 5786 5786 5784 5780 5778 5776 5775 5774 5772 5770 5769 5767 5766 5766 5765 5766 5766 5765 5765 5765 5765 5765 5765 5766 5767 5768 5768
5874 5873 5879 5879 5875 5869 5862 5851 5842 5836 5838 5835 5827 5819 5811 5807 5805 5804 5801 5796 5792 5788 5788 5786 5784 5779 5777 5776 5775 5775 5773 5772 5770 5769 5768 5767 5766 5765 5766 5765 5766 5767 5767 5767 5767 5767 5768 5768 5769
5878 5877 5877 5877 5871 5866 5853 5848 5842 5834 5839 5831 5824 5818 5816 5811 5808 5804 5800 5796 5793 5791 5789 5788 5785 5781 5779 5776 5775 5775 5774 5772 5771 5769 5768 5767 5766 5766 5766 5766 5766 5767 5768 5768 5768 5768 5768 5767 5768
5882 5867 5868 5872 5871 5866 5855 5834 5836 5842 5839 5828 5823 5820 5817 5815 5812 5807 5804 5800 5797 5794 5792 5789 5787 5784 5781 5779 5778 5777 5776 5775 5773 5770 5769 5768 5767 5766 5766 5766 5766 5767 5768 5768 5769 5768 5768 5767 5768
5869 5853 5845 5864 5872 5868 5847 5818 5838 5847 5838 5827 5825 5822 5818 5816 5815 5813 5810 5805 5802 5798 5794 5792 5792 5786 5782 5780 5779 5779 5778 5776 5773 5771 5770 5769 5768 5768 5768 5768 5768 5768 5769 5769 5768 5768 5767 5766 5765
5848 5838 5842 5856 5874 5868 5851 5828 5841 5850 5841 5830 5827 5824 5820 5817 5817 5816 5814 5810 5805 5801 5796 5792 5791 5787 5785 5782 5780 5779 5777 5776 5775 5773 5772 5771 5770 5770 5769 5769 5769 5769 5770 5769 5769 5767 5766 5763 5763
5833 5842 5847 5852 5867 5864 5847 5838 5844 5850 5845 5836 5832 5828 5823 5819 5818 5819 5817 5814 5809 5804 5799 5795 5792 5789 5787 5784 5781 5779 5778 5778 5777 5775 5773 5772 5772 5771 5770 5770 5770 5770 5769 5768 5768 5766 5765 5764 5763
5856 5849 5847 5857 5874 5862 5845 5839 5844 5851 5847 5840 5836 5832 5827 5824 5826 5824 5821 5817 5811 5806 5800 5796 5793 5790 5787 5784 5780 5777 5776 5778 5777 5776 5775 5774 5773 5772 5771 5771 5770 5770 5769 5768 5768 5766 5764 5763 5764
5859 5851 5850 5860 5872 5862 5846 5837 5847 5853 5851 5849 5842 5837 5832 5829 5827 5824 5822 5818 5812 5807 5803 5799 5795 5792 5789 5787 5784 5782 5780 5780 5779 5778 5776 5775 5774 5773 5773 5771 5770 5770 5769 5767 5767 5765 5762 5763 5764
5855 5851 5850 5849 5862 5864 5848 5828 5835 5848 5858 5856 5853 5848 5842 5835 5829 5826 5823 5820 5816 5810 5806 5804 5799 5796 5792 5790 5787 5785 5782 5780 5778 5777 5776 5776 5775 5773 5772 5772 5771 5771 5770 5767 5767 5766 5763 5759 5762
5847 5866 5860 5854 5843 5836 5845 5810 5825 5839 5846 5852 5852 5850 5848 5845 5839 5833 5828 5824 5820 5816 5813 5808 5803 5799 5796 5793 5789 5784 5779 5776 5777 5778 5777 5777 5776 5775 5774 5773 5772 5771 5770 5768 5767 5767 5765 5762 5758
5861 5871 5862 5855 5843 5836 5846 5827 5821 5835 5836 5845 5853 5855 5854 5852 5846 5840 5835 5830 5827 5824 5817 5811 5806 5801 5798 5795 5791 5787 5783 5782 5782 5780 5777 5777 5776 5775 5774 5773 5772 5771 5770 5768 5767 5766 5765 5763 5760
5871 5862 5855 5852 5841 5815 5833 5831 5817 5834 5842 5848 5856 5859 5859 5857 5852 5847 5843 5837 5831 5828 5822 5815 5807 5802 5800 5796 5793 5789 5785 5783 5780 5779 5777 5777 5776 5776 5775 5774 5772 5771 5770 5769 5768 5766 5765 5763 5761
5860 5837 5812 5806 5806 5804 5835 5832 5833 5857 5866 5865 5863 5862 5863 5861 5855 5849 5843 5837 5832 5828 5824 5818 5809 5803 5801 5798 5794 5791 5788 5785 5781 5779 5778 5777 5776 5774 5773 5774 5772 5770 5770 5769 5767 5766 5764 5762 5760
5848 5842 5811 5792 5795 5803 5818 5820 5846 5872 5880 5879 5875 5870 5865 5861 5858 5852 5846 5841 5835 5831 5826 5819 5812 5806 5803 5799 5795 5793 5791 5788 5784 5782 5780 5778 5776 5775 5774 5773 5771 5770 5769 5768 5766 5764 5762 5761 5759
5841 5842 5852 5832 5820 5805 5810 5828 5849 5870 5872 5873 5871 5868 5864 5861 5859 5854 5850 5845 5839 5833 5828 5822 5814 5808 5805 5801 5797 5793 5791 5788 5786 5784 5782 5779 5778 5777 5775 5773 5770 5769 5767 5766 5764 5761 5760 5759 5757
5854 5849 5840 5826 5801 5790 5801 5809 5824 5842 5855 5863 5864 5862 5861 5862 5860 5856 5852 5847 5842 5837 5831 5825 5818 5811 5807 5803 5799 5796 5792 5789 5786 5784 5780 5778 5777 5775 5773 5771 5769 5767 5766 5764 5762 5759 5757 5755 5754
5836 5835 5830 5827 5823 5801 5789 5797 5837 5844 5855 5860 5863 5864 5863 5861 5859 5856 5852 5849 5844 5838 5832 5825 5818 5812 5808 5804 5801 5797 5794 5790 5787 5783 5781 5778 5776 5774 5771 5769 5767 5765 5763 5762 5759 5757 5755 5752 5750
5844 5837 5833 5810 5807 5813 5807 5814 5860 5862 5861 5863 5864 5864 5864 5862 5861 5858 5853 5848 5843 5837 5831 5825 5819 5814 5809 5806 5801 5797 5794 5790 5786 5783 5780 5778 5775 5773 5770 5768 5765 5763 5761 5759 5756 5753 5751 5749 5746